{"data":{"norad_id":66355,"intl_designator":"2025-254H","name":"STARLINK-35861","alt_names":[],"object_type":"PAYLOAD","status":"ACTIVE","operator":null,"country":"US","launch_date":"2025-11-06","launch_site_code":"AFWTR","launch_vehicle":null,"mission":null,"orbit_class":"UNKNOWN","rcs_meters":null,"size_class":null,"mass_kg":null,"dimensions":null,"purposes":["comms"],"wikipedia_slug":null,"has_3d_model":false,"image_url":null,"decayed_at":null,"tle_current":{"epoch":"2026-09-20T22:21:18.310752Z","epoch_age_seconds":56114,"freshness":"FRESH","line1":"1 66355U 25254H   26263.93146193  .00015905  00000+0  48075-3 0  9994","line2":"2 66355  53.1598  43.7727 0001151  50.8363 309.2742 15.34406743 48894","mean_motion":15.34406743,"eccentricity":0.0001151,"inclination_deg":53.1598,"raan_deg":43.7727,"arg_perigee_deg":50.8363,"mean_anomaly_deg":309.2742,"bstar":0.00048075,"rev_number":4889,"period_min":93.84734566433,"perigee_km":461.89582025861,"apogee_km":463.47057706834,"semimajor_km":6840.8201986635,"source":"CELESTRAK","updated_at":"2026-09-21T09:00:35.880513Z"}}}